Weather History for KCZZ - December, 2013

Change the Weather History Date:

Tuesday, December 10, 2013

  Actual Average Record
Temperature  
Mean Temperature 46 °F 48 °F  
Max Temperature 54 °F 63 °F 83 °F (1995)
Min Temperature 38 °F 32 °F 19 °F (1960)
Degree Days  
Heating Degree Days 19 17  
Month to date heating degree days 219 167  
Since 1 July heating degree days 848 737  
Cooling Degree Days 0 0  
Month to date cooling degree days 0 0  
Year to date cooling degree days 909 841  
Moisture  
Dew Point -1 °F    
Average Humidity 13    
Maximum Humidity 16    
Minimum Humidity 10    
Precipitation  
Precipitation 0.00 in 0.07 in 1.05 in (1991)
Month to date precipitation 0.28 0.65  
Year to date precipitation 8.70 14.11  
Since 1 July precipitation 3.92 3.96  
Snow  
Snow 0.00 in - - ()
Month to date snowfall 0.0  
Year to date snowfall 0.0  
Since 1 July snowfall 0.0  
Snow Depth 0.00 in    
Sea Level Pressure  
Sea Level Pressure 30.10 in    
Wind  
Wind Speed 16 mph (ENE)    
Max Wind Speed 29 mph    
Max Gust Speed 35 mph    
T = Trace of Precipitation, MM = Missing Value Source: NWS Daily Summary

Daily Weather History Graph

Daily Weather History Graph

Search for Another Location

Airport or City:

Trip Planner

Search our weather history database for the weather conditions in past years. The results will help you decide how hot, cold, wet, or windy it might be!

Date:

Astronomy

Dec. 10, 2013 Rise Set
Actual Time 6:37 AM PST 4:40 PM PST
Civil Twilight 6:10 AM PST 5:07 PM PST
Nautical Twilight 5:39 AM PST 5:38 PM PST
Astronomical Twilight 5:09 AM PST 6:08 PM PST
Moon 12:27 PM PST (12/10) 12:18 AM PST (12/10)
Length of Visible Light 10h 57m
Length of Day
10h 03m
Waxing Gibbous, 63% of the Moon is Illuminated
Dec 10
Waxing Gibbous
Dec 17
Full
Dec 25
Last Quarter
Jan 1
New
Jan 7
First Quarter

Hourly Weather History & Observations

Time (PST) Temp. Windchill Dew Point Humidity Pressure Visibility Wind Dir Wind Speed Gust Speed Precip Events Conditions
12:52 AM 39.9 °F 33.4 °F -8.0 °F 13% 30.18 in - NNE 10.4 mph 28.8 mph N/A   Unknown
1:52 AM 39.0 °F 35.7 °F -7.1 °F 14% 30.17 in - Variable 4.6 mph - N/A   Unknown
2:52 AM 39.9 °F 31.4 °F -5.1 °F 15% 30.16 in - NE 16.1 mph 20.7 mph N/A   Unknown
3:52 AM 39.9 °F 30.8 °F -4.0 °F 16% 30.14 in - ENE 18.4 mph - N/A   Unknown
4:52 AM 39.0 °F 32.3 °F -4.0 °F 16% 30.16 in - NE 10.4 mph - N/A   Unknown
5:52 AM 39.0 °F 31.4 °F -4.0 °F 16% 30.16 in - ENE 12.7 mph 21.9 mph N/A   Unknown
6:52 AM 37.9 °F 28.2 °F -6.0 °F 15% 30.16 in - ENE 18.4 mph - N/A   Unknown
7:52 AM 41.0 °F 32.2 °F -5.1 °F 14% 30.15 in - ENE 18.4 mph 27.6 mph N/A   Unknown
8:52 AM 46.0 °F 37.6 °F -4.0 °F 12% 30.14 in - ENE 24.2 mph - N/A   Unknown
9:52 AM 45.0 °F 37.1 °F -4.0 °F 13% 30.15 in - ENE 19.6 mph - N/A   Unknown
10:52 AM 50.0 °F - -2.0 °F 12% 30.11 in - East 21.9 mph 29.9 mph N/A   Unknown
11:52 AM 52.0 °F - -0.0 °F 12% 30.07 in - ENE 23.0 mph 31.1 mph N/A   Unknown
12:52 PM 51.1 °F - -2.0 °F 11% 30.06 in - East 23.0 mph 32.2 mph N/A   Unknown
1:52 PM 53.1 °F - -2.0 °F 10% 30.04 in - ENE 21.9 mph - N/A   Unknown
2:52 PM 53.1 °F - -2.0 °F 10% 30.04 in - ENE 18.4 mph - N/A   Unknown
3:52 PM 51.1 °F - 1.0 °F 13% 30.04 in - East 11.5 mph - N/A   Unknown
4:52 PM 46.9 °F - 1.0 °F 15% 30.04 in - ENE 8.1 mph - N/A   Unknown
5:52 PM 45.0 °F 40.6 °F 1.0 °F 16% 30.05 in - ENE 8.1 mph - N/A   Unknown
6:52 PM 46.9 °F - -0.9 °F 14% 30.06 in - SE 5.8 mph - N/A   Unknown
7:52 PM 46.0 °F 41.0 °F -0.0 °F 15% 30.07 in - ENE 10.4 mph - N/A   Unknown
8:52 PM 44.1 °F - 8.1 °F 23% 30.07 in - Calm Calm - N/A   Unknown
9:52 PM 44.1 °F 40.1 °F 5.0 °F 20% 30.07 in - NE 6.9 mph - N/A   Unknown
10:52 PM 39.9 °F - 8.1 °F 27% 30.08 in - Calm Calm - N/A   Unknown
11:52 PM 37.9 °F - 9.0 °F 30% 30.07 in - Calm Calm - N/A   Unknown